When you browse on this site, cookies collect data to enhance your experience and personalize the content and advertising you see.
Visit our Privacy Policy to learn more. By continuing to use the site, you agree to this use of cookies and data.
  • In Romania
  • List of Countries
  • For 7 days
  • Water Temperature
  • Satellite Maps
  • Weather Map
  • Weather Widgets
  • user-avatar
    Login

    Hourly Weather Koniusza

    Today, 19 May, Sunday

    Time Temperature Precipitation Wind Pressure Humidity
    00:00 +13°C° 0 mm 2 mps 728 mmHg 92%
    01:00 +13°C° 0 mm 1 mps 727 mmHg 92%
    02:00 +12°C° 0 mm 1 mps 727 mmHg 92%
    03:00 +12°C° 0 mm 1 mps 727 mmHg 92%
    04:00 +11°C° 0 mm 1 mps 727 mmHg 92%
    05:00 +13°C° 0 mm 1 mps 727 mmHg 89%
    06:00 +14°C° 0 mm 1 mps 727 mmHg 85%
    07:00 +16°C° 0 mm 1 mps 727 mmHg 82%
    08:00 +17°C° 0 mm 2 mps 727 mmHg 77%
    09:00 +19°C° 0 mm 2 mps 727 mmHg 72%
    10:00 +21°C° 0 mm 2 mps 727 mmHg 68%
    11:00 +22°C° 0.1 mm 3 mps 727 mmHg 65%
    12:00 +22°C° 0.1 mm 4 mps 727 mmHg 63%
    13:00 +23°C° 0.1 mm 4 mps 727 mmHg 61%
    14:00 +23°C° 0.6 mm 4 mps 727 mmHg 63%
    15:00 +23°C° 0.6 mm 4 mps 726 mmHg 65%
    16:00 +23°C° 0.6 mm 5 mps 726 mmHg 67%
    17:00 +21°C° 0.2 mm 4 mps 726 mmHg 71%
    18:00 +20°C° 0.2 mm 4 mps 726 mmHg 76%
    19:00 +18°C° 0.2 mm 4 mps 726 mmHg 81%
    20:00 +17°C° 0 mm 3 mps 726 mmHg 83%
    21:00 +16°C° 0 mm 3 mps 726 mmHg 86%
    22:00 +14°C° 0 mm 3 mps 726 mmHg 88%
    23:00 +14°C° 0 mm 2 mps 725 mmHg 89%

    Tomorrow, 20 May, Monday

    Time Temperature Precipitation Wind Pressure Humidity
    00:00 +14°C° 0 mm 2 mps 725 mmHg 89%
    01:00 +13°C° 0 mm 2 mps 725 mmHg 90%
    02:00 +13°C° 0 mm 2 mps 725 mmHg 90%
    03:00 +13°C° 0 mm 2 mps 724 mmHg 91%
    04:00 +13°C° 0 mm 2 mps 724 mmHg 91%
    05:00 +14°C° 0 mm 3 mps 724 mmHg 88%
    06:00 +15°C° 0 mm 4 mps 724 mmHg 85%
    07:00 +18°C° 0 mm 4 mps 724 mmHg 83%
    08:00 +19°C° 0 mm 4 mps 725 mmHg 77%
    09:00 +21°C° 0 mm 4 mps 725 mmHg 72%
    10:00 +22°C° 0 mm 4 mps 725 mmHg 66%
    11:00 +23°C° 0.3 mm 4 mps 725 mmHg 63%
    12:00 +25°C° 0.3 mm 4 mps 726 mmHg 59%
    13:00 +25°C° 0.3 mm 4 mps 726 mmHg 56%
    14:00 +25°C° 0.1 mm 4 mps 726 mmHg 57%
    15:00 +25°C° 0.1 mm 4 mps 726 mmHg 58%
    16:00 +25°C° 0.1 mm 3 mps 726 mmHg 59%
    17:00 +22°C° 0 mm 3 mps 726 mmHg 64%
    18:00 +20°C° 0 mm 3 mps 726 mmHg 69%
    19:00 +18°C° 0 mm 3 mps 726 mmHg 74%
    20:00 +17°C° 0 mm 2 mps 726 mmHg 74%
    21:00 +16°C° 0 mm 2 mps 726 mmHg 74%
    22:00 +15°C° 0 mm 2 mps 726 mmHg 75%
    23:00 +14°C° 0 mm 2 mps 726 mmHg 76%

    Day after tomorrow, 21 May, Tuesday

    Time Temperature Precipitation Wind Pressure Humidity
    00:00 +14°C° 0 mm 1 mps 726 mmHg 78%
    01:00 +13°C° 0 mm 1 mps 726 mmHg 80%
    02:00 +13°C° 0 mm 1 mps 726 mmHg 80%
    03:00 +13°C° 0 mm 1 mps 726 mmHg 80%
    04:00 +13°C° 0 mm 1 mps 725 mmHg 81%
    05:00 +14°C° 0 mm 1 mps 726 mmHg 78%
    06:00 +15°C° 0 mm 1 mps 726 mmHg 75%
    07:00 +15°C° 0 mm 0 mps 726 mmHg 73%
    08:00 +18°C° 0.1 mm 1 mps 726 mmHg 72%
    09:00 +17°C° 0.1 mm 2 mps 726 mmHg 71%
    10:00 +18°C° 0.1 mm 2 mps 727 mmHg 70%
    11:00 +18°C° 0.2 mm 2 mps 727 mmHg 70%
    12:00 +18°C° 0.2 mm 2 mps 727 mmHg 69%
    13:00 +18°C° 0.2 mm 3 mps 727 mmHg 69%
    14:00 +18°C° 0.1 mm 2 mps 727 mmHg 68%
    15:00 +18°C° 0.1 mm 2 mps 727 mmHg 68%
    16:00 +18°C° 0.1 mm 2 mps 727 mmHg 67%
    17:00 +17°C° 0.5 mm 2 mps 727 mmHg 71%
    18:00 +16°C° 0.5 mm 1 mps 727 mmHg 75%
    19:00 +15°C° 0.5 mm 1 mps 727 mmHg 80%
    20:00 +15°C° 0 mm 1 mps 727 mmHg 81%
    21:00 +14°C° 0 mm 1 mps 727 mmHg 82%
    22:00 +14°C° 0 mm 1 mps 728 mmHg 83%
    23:00 +13°C° 0.1 mm 1 mps 728 mmHg 85%

    22 May, Wednesday

    Time Temperature Precipitation Wind Pressure Humidity
    00:00 +13°C° 0.1 mm 1 mps 727 mmHg 87%
    01:00 +13°C° 0.1 mm 1 mps 727 mmHg 89%
    02:00 +13°C° 0.1 mm 1 mps 727 mmHg 90%
    03:00 +12°C° 0.1 mm 1 mps 727 mmHg 91%
    04:00 +12°C° 0.1 mm 1 mps 728 mmHg 91%
    05:00 +13°C° 0.1 mm 1 mps 728 mmHg 89%
    06:00 +14°C° 0.1 mm 1 mps 728 mmHg 86%
    07:00 +15°C° 0.1 mm 1 mps 728 mmHg 84%
    08:00 +16°C° 0.2 mm 2 mps 728 mmHg 80%
    09:00 +17°C° 0.2 mm 2 mps 728 mmHg 75%
    10:00 +18°C° 0.2 mm 3 mps 728 mmHg 71%
    11:00 +19°C° 1 mm 3 mps 728 mmHg 71%
    12:00 +19°C° 1 mm 3 mps 728 mmHg 72%
    13:00 +19°C° 1 mm 4 mps 728 mmHg 72%
    14:00 +19°C° 0.7 mm 4 mps 728 mmHg 74%
    15:00 +19°C° 0.7 mm 4 mps 728 mmHg 77%
    16:00 +18°C° 0.7 mm 4 mps 728 mmHg 79%
    17:00 +17°C° 0.6 mm 4 mps 728 mmHg 83%
    18:00 +16°C° 0.6 mm 3 mps 728 mmHg 87%
    19:00 +14°C° 0.6 mm 3 mps 728 mmHg 91%
    20:00 +13°C° 0.1 mm 3 mps 729 mmHg 92%
    21:00 +13°C° 0.1 mm 4 mps 729 mmHg 93%
    22:00 +13°C° 0.1 mm 4 mps 729 mmHg 95%
    23:00 +12°C° 0.1 mm 4 mps 729 mmHg 94%

    23 May, Thursday

    Time Temperature Precipitation Wind Pressure Humidity
    00:00 +12°C° 0.1 mm 4 mps 729 mmHg 94%
    01:00 +11°C° 0.1 mm 3 mps 729 mmHg 94%
    02:00 +11°C° 0 mm 3 mps 729 mmHg 94%
    03:00 +11°C° 0 mm 3 mps 729 mmHg 95%
    04:00 +12°C° 0 mm 2 mps 729 mmHg 95%
    05:00 +11°C° 0 mm 3 mps 729 mmHg 93%
    06:00 +12°C° 0 mm 3 mps 729 mmHg 91%
    07:00 +13°C° 0 mm 4 mps 730 mmHg 89%
    08:00 +13°C° 0.3 mm 3 mps 730 mmHg 89%
    09:00 +14°C° 0.3 mm 3 mps 730 mmHg 89%
    10:00 +14°C° 0.3 mm 3 mps 730 mmHg 89%
    11:00 +14°C° 0.5 mm 4 mps 730 mmHg 89%
    12:00 +14°C° 0.5 mm 5 mps 730 mmHg 89%
    13:00 +14°C° 0.5 mm 6 mps 731 mmHg 88%
    14:00 +13°C° 0.4 mm 6 mps 731 mmHg 90%
    15:00 +11°C° 0.4 mm 6 mps 731 mmHg 91%
    16:00 +10°C° 0.4 mm 6 mps 731 mmHg 92%
    17:00 +10°C° 0.4 mm 6 mps 731 mmHg 93%
    18:00 +9°C° 0.4 mm 6 mps 731 mmHg 93%
    19:00 +9°C° 0.4 mm 5 mps 731 mmHg 94%
    20:00 +9°C° 0.3 mm 5 mps 732 mmHg 93%
    21:00 +10°C° 0.3 mm 4 mps 732 mmHg 92%
    22:00 +10°C° 0.3 mm 4 mps 732 mmHg 92%
    23:00 +10°C° 0.1 mm 4 mps 732 mmHg 92%

    24 May, Friday

    Time Temperature Precipitation Wind Pressure Humidity
    00:00 +9°C° 0.1 mm 3 mps 732 mmHg 93%
    01:00 +9°C° 0.1 mm 3 mps 732 mmHg 93%
    02:00 +9°C° 0 mm 3 mps 732 mmHg 93%
    03:00 +8°C° 0 mm 2 mps 732 mmHg 93%
    04:00 +8°C° 0 mm 2 mps 732 mmHg 93%
    05:00 +9°C° 0 mm 2 mps 732 mmHg 90%
    06:00 +10°C° 0 mm 2 mps 732 mmHg 86%
    07:00 +12°C° 0 mm 2 mps 732 mmHg 83%
    08:00 +13°C° 0 mm 2 mps 732 mmHg 78%
    09:00 +14°C° 0 mm 2 mps 731 mmHg 73%
    10:00 +15°C° 0 mm 2 mps 731 mmHg 68%
    11:00 +16°C° 0 mm 2 mps 731 mmHg 65%
    12:00 +17°C° 0 mm 2 mps 730 mmHg 62%
    13:00 +18°C° 0 mm 1 mps 730 mmHg 59%
    14:00 +19°C° 0 mm 1 mps 729 mmHg 58%
    15:00 +19°C° 0 mm 1 mps 729 mmHg 57%
    16:00 +20°C° 0 mm 1 mps 728 mmHg 56%
    17:00 +18°C° 0 mm 1 mps 728 mmHg 61%
    18:00 +16°C° 0 mm 1 mps 728 mmHg 66%
    19:00 +14°C° 0 mm 1 mps 727 mmHg 71%
    20:00 +13°C° 0 mm 1 mps 727 mmHg 74%
    21:00 +12°C° 0 mm 1 mps 727 mmHg 78%
    22:00 +11°C° 0 mm 1 mps 727 mmHg 82%
    23:00 +11°C° 0 mm 1 mps 726 mmHg 83%
    Show more